Location: Cahoon Acres
(40.8736°N, 111.8994°W)
Time: 09:18:14
(UTC+00:00)

SR - Pass Details

Date: 07 June 2020
Orbit: 583 x 872 km, 66.7° (Epoch: 03 July)

Event Time Altitude Azimuth Distance (km) Brightness Sun altitude
Rises 19:20:51 0° 173° (S) 3,308 ? 71.9°
Reaches altitude 10° 19:23:50 10° 158° (SSE) 2,333 ? 72.0°
Maximum altitude 19:27:51 22° 109° (ESE) 1,595 ? 72.0°
Drops below altitude 10° 19:31:40 10° 60° (ENE) 2,198 ? 71.9°
Sets 19:34:22 0° 45° (NE) 3,067 ? 71.9°
